Weather in Demänovska Dolina

Slovakia     48°58′05″N   19°34′51″E
temp.,
°C
wind,
m/s
gust,
m/s
humid.,
%
clouds,
%
prec.,
mm/h
press.,
hPa
HPBL,
m
18 january, tue
tue1801:00−7nnw389794 1.4 1029563
04:00−9nnw249996 0.2 1031137
07:00−8nnw259991 0.3 1032160
10:00−5nnw378996 0.1 1032689
13:00−3nnw377496 0.1 1032998
16:00−7nnw239457 0.0 103463
19:00−10nne119872 0.0 103720
22:00−10ene119967 0.0 103816
19 january, wed
wed1901:00−11ne119859 0.0 103816
04:00−11se1196100 0.0 103610
07:00−10se11905 0.0 103512
10:00−3ssw126696 0.0 1031118
13:000ssw226562 0.0 1027286
16:00−5s239168 0.0 102639
19:00−8s349035 0.0 102657
22:00
20 january, thu
thu2001:00−6ssw349599 0.0 1021100
04:00−4wsw2695100 0.3 1017420
07:00
10:00−2wsw2994100 1.1 1013906
13:00−3w41393100 3.4 10101481
16:00−7wnw5138499 1.0 10131279
19:00−8wnw41392100 2.3 10151494
22:00−8wnw61393100 1.5 10151601
21 january, fri
fri2101:00−9nw41293100 2.6 10181307
04:00−10nw2896100 0.6 1019853
07:00−10nw249699 1.2 1021269
10:00−9nw2690100 0.4 1022569
13:00−7nw2688100 0.9 1021863
16:00−8nw2696100 1.7 1021835
19:00−9nnw2796100 2.9 1022526
22:00−11nw119894 0.4 102333
22 january, sat
sat2201:00−12nw119896 0.7 102331
04:00−12nw1298100 0.3 102351
07:00−12nw139799 0.7 102585
10:00−9nnw379398 0.4 1025474
13:00−7nnw4888100 0.9 10241025
16:00−8nnw389698 0.8 1026981
19:00−8nnw259797 1.7 1028321
22:00−10nnw249892 0.5 1030117